Location: Gälforsberget
(66.6500°N, 22.4167°E)
Time: 21:08:08
(UTC+00:00)

Cosmos 1656 - Pass Details

Date: 11 April 2026
Orbit: 798 x 846 km, 71.1° (Epoch: 11 May)

Event Time Altitude Azimuth Distance (km) Brightness Sun altitude
Rises 22:58:17 0° 314° (NW) 3,318 7.3 -14.6°
Reaches altitude 10° 23:00:49 10° 307° (NW) 2,385 6.4 -14.6°
Maximum altitude 23:05:50 39° 240° (WSW) 1,185 4.2 -14.5°
Enters shadow 23:08:48 22° 185° (S) 1,704 4.7 -14.4°
